Theta_e
320 319 319 320 321 321 320 320 320 319 318 317 314 310 309 309 308 308 308 311 315 316 315 314 313 312 311 312 312 310 309 307 307 306 307 306 306 306 307 306 305 306 307 309 310 310 311 313 315 319 325 330 333 333 332 331 331 331 332 333 333 332 331 330 329 330 330 330 330 330 329 328 327 325 325 324 321 322 326 328 328 329 329 328 327
319 319 320 320 321 321 320 320 320 320 319 317 314 312 312 311 309 309 309 312 316 316 316 316 313 311 311 312 311 310 309 308 308 307 307 306 305 305 306 305 305 306 306 308 310 312 312 311 313 315 318 323 327 330 332 333 333 332 331 331 332 332 332 331 330 329 330 330 330 330 329 326 326 326 325 325 324 321 322 325 327 328 328 328 327
319 319 320 320 320 321 320 321 320 320 319 317 315 313 313 313 313 310 310 312 314 315 315 314 312 310 311 311 310 310 310 309 308 308 307 307 306 305 305 305 305 306 306 307 309 312 314 315 317 317 317 317 320 323 326 330 332 333 332 332 332 332 332 332 331 330 329 329 329 329 329 326 326 326 325 325 326 324 322 322 323 325 327 328 328
319 319 320 320 321 321 321 321 321 320 320 318 317 315 313 315 315 313 311 311 312 315 314 311 310 310 310 311 310 311 311 310 309 308 307 307 307 306 305 304 304 305 305 307 310 310 313 318 320 320 318 317 318 319 320 323 326 329 331 332 332 332 332 332 331 331 330 329 328 328 329 329 328 327 327 327 327 326 325 324 322 322 322 324 326
319 319 319 321 321 321 321 321 321 321 320 319 318 317 316 316 316 314 313 312 311 313 312 310 310 311 311 311 312 312 312 311 309 308 308 307 307 306 306 305 304 304 305 307 311 311 311 315 318 319 318 317 318 319 320 320 321 322 324 326 329 330 331 332 332 331 331 331 330 328 328 330 330 328 328 328 328 328 327 326 325 324 323 322 324
319 319 319 321 320 321 321 321 321 321 320 319 319 318 318 318 316 314 314 313 312 311 311 311 312 312 311 311 313 313 313 313 310 308 308 308 307 307 307 306 305 304 304 306 309 311 311 312 314 315 316 315 316 319 321 321 321 321 322 322 323 324 326 328 330 332 332 332 332 330 329 329 329 328 328 328 328 328 328 328 327 327 326 325 326
318 319 319 320 321 321 321 322 322 321 320 319 319 318 319 319 317 316 315 314 313 312 311 312 313 312 313 312 313 314 315 315 312 309 308 308 308 307 307 307 306 305 305 304 306 308 309 310 311 311 311 312 314 316 320 322 322 323 323 324 323 324 324 324 325 328 330 331 332 331 330 329 328 327 328 329 329 329 328 328 328 328 327 326 327
317 318 319 320 321 321 320 321 321 321 320 320 321 320 319 319 317 317 317 315 314 313 312 313 313 313 313 313 314 315 315 314 312 310 309 308 308 308 307 307 307 306 306 305 305 305 306 307 308 309 309 311 312 313 317 321 323 323 324 324 324 324 325 324 323 323 326 328 329 331 332 331 329 328 328 329 329 330 329 329 329 329 328 327 327
317 318 318 319 320 320 320 320 320 320 319 320 321 321 320 320 319 319 318 316 315 314 313 313 313 313 313 313 314 314 313 313 312 310 310 309 308 308 308 307 307 306 306 306 306 305 305 305 305 305 307 308 309 311 312 316 320 322 323 324 323 323 324 325 325 324 324 324 325 328 330 331 331 330 330 330 329 329 329 329 328 328 329 328 328
317 318 318 319 319 320 320 319 319 319 320 320 321 321 321 321 321 320 319 317 316 315 314 314 314 313 313 314 313 313 313 313 312 311 310 309 308 308 307 307 307 307 306 307 306 306 306 306 305 305 305 305 306 307 308 311 315 319 321 322 322 323 323 324 325 325 325 325 324 324 326 329 331 332 331 331 331 329 329 329 328 328 329 329 329
318 317 318 319 319 319 319 319 319 320 320 320 321 321 323 323 321 321 320 319 317 316 315 315 314 313 313 314 314 313 314 313 312 311 311 309 308 308 308 307 307 307 307 307 307 307 306 306 306 306 306 305 305 305 305 306 308 311 315 317 318 319 321 323 324 325 325 325 326 325 324 325 327 330 331 332 331 329 328 328 328 328 329 329 330
318 317 317 318 320 320 319 320 320 320 320 320 320 321 323 323 322 321 321 320 318 316 315 316 315 314 314 314 314 314 314 314 313 311 310 309 309 308 307 307 307 307 307 307 307 307 306 306 306 306 306 306 305 305 305 304 305 305 307 310 312 315 317 319 321 323 323 324 325 325 325 325 325 326 328 330 330 329 328 327 327 327 327 328 329
318 317 317 318 320 321 321 321 321 320 321 320 320 321 322 323 322 321 321 320 318 316 315 316 316 314 314 314 314 314 314 314 313 311 310 310 308 307 307 307 307 307 307 307 307 307 306 306 306 306 306 305 305 305 305 305 304 304 304 305 306 309 312 315 316 319 321 323 324 324 325 325 326 325 326 328 329 330 329 327 326 327 328 327 328
317 317 318 318 318 321 321 321 321 321 321 321 321 321 322 322 322 321 321 321 319 316 315 316 316 315 315 315 315 315 314 314 313 311 310 310 308 307 308 307 307 307 307 307 306 306 306 306 306 306 306 305 305 305 305 305 304 304 304 303 304 305 308 312 314 316 318 321 322 322 323 324 325 325 325 326 326 327 328 328 328 329 328 327 327
317 317 318 318 318 319 321 320 320 321 321 321 320 320 320 321 321 321 321 321 319 317 315 315 315 316 316 315 314 313 313 314 313 311 310 310 309 308 308 307 307 307 307 306 306 306 306 306 306 306 305 305 305 305 305 305 304 304 303 303 303 302 304 309 312 314 315 317 318 319 321 322 323 324 325 326 326 326 326 327 328 329 328 328 328
318 318 318 318 318 319 320 319 320 320 320 320 320 320 320 320 320 320 321 320 318 317 315 314 315 316 316 314 313 312 312 312 313 312 311 310 309 309 308 308 307 307 307 306 306 306 306 306 306 306 305 305 305 305 306 306 305 304 303 302 302 302 302 305 309 312 313 314 315 316 317 320 321 322 323 325 325 326 326 326 327 329 328 327 327
316 317 318 319 319 319 319 319 319 319 319 319 319 319 319 319 319 320 321 320 318 316 314 314 315 316 314 312 311 311 311 311 311 312 311 310 310 309 309 308 307 307 307 306 306 306 306 306 306 305 305 305 305 305 306 306 306 305 304 303 303 302 302 303 305 309 311 312 312 312 314 316 318 320 321 323 324 325 326 327 327 328 327 326 326
316 315 316 318 319 320 319 319 319 319 319 319 318 319 319 319 319 319 320 319 317 315 314 315 315 314 312 311 310 310 310 310 310 311 311 310 310 309 309 308 307 307 307 307 307 306 306 306 305 305 305 305 305 305 305 306 307 306 305 305 304 303 303 303 303 305 307 309 310 310 312 314 316 317 319 320 321 323 325 326 327 327 328 327 327
315 314 314 317 319 320 319 319 319 319 319 319 319 319 319 319 319 318 319 318 316 315 316 316 315 313 310 310 310 310 310 310 309 310 310 310 310 310 309 308 307 307 307 306 306 306 306 305 305 305 305 305 305 305 305 305 306 306 306 305 305 304 304 303 303 303 304 306 308 309 311 314 316 317 318 319 319 320 321 323 325 326 326 326 327
315 315 314 316 318 320 319 319 319 319 319 319 319 319 319 319 319 319 320 320 318 317 316 315 314 311 310 310 310 310 310 310 309 309 309 309 310 309 309 308 307 307 307 307 306 305 305 305 305 305 305 305 305 305 305 305 305 305 305 305 305 305 305 304 303 303 303 304 306 308 310 312 315 318 319 319 319 319 319 320 321 323 325 325 326
316 316 315 315 317 319 319 319 318 318 319 320 319 319 319 319 319 318 320 322 320 317 315 314 312 311 310 310 310 310 310 310 309 309 309 309 309 309 308 308 307 307 307 306 305 305 305 305 306 306 305 305 305 305 305 305 305 305 305 305 305 305 305 304 304 303 303 303 304 306 308 310 313 316 319 319 319 319 320 319 319 320 322 323 325
315 316 315 315 316 318 319 319 319 320 320 320 320 319 319 319 319 317 318 319 319 315 313 312 312 311 310 310 310 310 310 310 309 309 309 309 309 309 308 307 307 307 306 305 305 304 305 305 305 306 306 305 305 305 305 306 305 305 305 305 304 304 304 304 304 304 304 304 304 304 306 309 311 314 317 319 320 320 320 319 319 319 320 319 322
314 315 315 315 315 316 318 319 320 320 320 320 319 319 319 319 319 318 318 319 318 315 313 312 312 311 311 310 310 310 310 310 309 309 309 309 309 308 308 307 307 306 306 305 304 304 305 305 305 305 306 306 305 305 305 305 305 305 305 304 304 304 304 304 304 304 305 305 305 305 304 305 309 312 314 316 319 320 320 320 319 320 319 319 319
312 313 315 315 315 315 317 319 320 320 319 319 319 319 319 319 319 319 318 318 317 315 314 313 313 312 311 311 310 310 310 310 309 309 309 308 308 308 308 307 306 305 305 304 304 304 305 305 305 306 306 306 305 305 305 305 305 305 305 304 304 304 304 304 304 304 305 305 305 306 306 305 306 308 311 313 316 319 320 320 320 321 321 320 319
310 311 312 314 314 314 315 317 319 319 320 319 319 319 319 319 319 319 319 319 317 316 314 314 314 313 312 311 310 310 310 309 309 309 309 308 308 308 307 306 305 304 304 304 304 304 304 305 305 305 305 305 305 305 305 305 305 304 304 304 304 304 304 304 304 304 304 304 304 304 306 307 306 306 307 309 313 316 319 320 320 321 322 322 321
309 309 309 310 311 313 314 314 316 317 318 319 319 319 319 319 320 320 320 318 317 315 314 314 314 314 312 311 311 310 310 310 309 309 309 309 308 307 306 305 304 304 304 304 304 304 304 304 304 304 305 305 305 305 305 305 304 304 304 304 304 304 304 304 304 304 303 304 303 303 304 306 306 306 307 307 309 313 316 318 319 320 321 321 322
308 308 309 309 309 311 312 313 314 315 316 317 318 318 319 319 320 320 320 317 315 315 315 314 315 315 313 312 311 310 310 310 310 309 309 308 308 306 305 304 304 304 304 304 304 304 304 303 303 304 304 304 304 304 304 304 304 304 304 304 304 304 304 303 303 303 303 303 303 303 303 304 304 305 306 307 308 310 312 315 317 318 319 319 320
308 309 309 309 309 309 310 312 314 314 315 316 318 319 318 318 319 318 318 316 315 316 316 315 316 315 313 312 311 311 311 310 310 309 309 308 306 305 304 304 304 304 303 304 303 303 303 303 303 303 303 303 303 303 303 303 303 303 303 303 303 303 303 303 303 303 303 303 303 303 303 303 303 304 304 305 307 308 309 312 314 316 316 317 318
309 310 310 310 310 311 311 313 314 314 314 315 318 320 321 320 320 319 317 316 316 316 316 316 315 315 314 312 312 312 311 311 310 310 309 307 305 304 304 304 304 303 303 303 303 303 303 303 303 303 302 302 302 302 302 302 302 302 302 303 303 303 303 303 303 303 302 303 303 303 303 303 303 303 303 304 305 305 306 308 312 314 315 315 317
309 310 310 310 310 310 311 312 313 314 315 314 315 319 322 322 322 320 318 317 316 316 316 316 316 315 314 313 313 312 312 311 310 309 308 307 305 304 304 304 304 303 303 303 303 303 303 303 302 302 302 302 302 301 300 300 300 301 301 302 302 302 302 302 303 302 302 302 302 302 302 302 302 303 303 303 303 304 304 305 307 310 313 314 315
309 309 309 309 309 309 309 310 310 312 313 313 314 318 321 321 321 321 320 319 318 317 317 316 316 315 314 313 313 313 312 311 310 310 308 306 305 304 304 304 304 303 303 303 303 303 303 302 302 302 302 301 301 301 300 299 299 299 300 300 301 301 301 301 302 302 301 302 301 301 301 301 301 301 301 301 301 302 303 304 305 307 309 312 313
308 308 308 308 308 309 309 309 310 310 311 312 312 315 318 319 320 320 319 319 319 319 319 317 316 315 314 314 313 313 312 311 310 309 308 305 305 305 304 304 304 304 303 303 302 302 302 302 302 302 301 301 301 300 299 298 299 299 299 299 299 299 299 299 300 300 300 300 300 300 300 300 300 300 300 300 300 300 301 302 304 305 306 309 311
309 310 310 310 309 309 309 310 311 311 311 311 311 312 314 316 317 317 317 317 319 319 318 317 315 315 314 314 313 312 311 310 309 308 306 306 305 305 304 304 304 303 302 302 302 302 302 302 301 301 301 301 300 299 298 298 299 299 298 298 298 298 298 298 298 299 299 299 299 299 299 299 299 299 299 299 300 299 299 300 302 303 305 306 308
310 310 310 310 309 308 309 310 311 310 310 310 311 311 312 314 315 316 316 316 317 317 317 316 315 314 314 313 312 311 310 309 308 307 306 306 305 305 304 304 303 302 302 302 302 302 302 301 301 301 300 300 299 298 298 298 298 298 298 298 298 298 298 297 297 297 297 297 297 297 298 298 298 298 298 299 299 299 299 299 300 301 303 305 307
309 309 309 309 308 307 307 307 308 308 309 310 311 311 312 313 314 315 315 315 315 316 315 314 314 314 313 312 311 310 309 309 308 306 306 305 305 305 304 304 303 303 302 302 302 302 301 301 300 300 299 299 298 297 298 298 298 298 298 298 298 298 297 297 297 297 297 297 296 297 297 297 297 297 297 298 298 298 298 298 299 299 301 304 307
308 309 309 308 308 307 307 308 309 310 310 311 312 312 313 313 314 314 314 314 315 314 312 312 313 312 311 311 310 309 309 308 306 305 305 305 305 304 304 303 303 303 302 302 301 301 300 300 299 299 298 297 297 297 297 297 297 297 297 297 297 297 296 296 296 296 296 295 295 295 295 296 296 296 297 297 297 297 298 298 298 298 299 302 304
308 308 308 308 308 308 309 310 311 312 312 312 312 313 313 313 313 313 313 313 314 312 310 311 311 310 310 310 310 309 308 306 305 304 305 305 304 304 303 303 303 302 302 301 300 299 299 299 298 297 296 296 296 296 296 296 296 296 296 296 296 296 295 295 295 295 294 294 294 294 294 295 295 296 296 296 297 297 297 297 297 298 298 300 302
307 308 308 308 308 309 309 310 310 311 312 312 312 314 314 313 313 313 313 314 313 311 309 310 310 310 310 309 309 308 306 304 304 305 305 304 304 303 303 303 302 301 300 299 298 298 298 297 296 296 295 295 295 295 295 295 295 295 294 295 295 295 294 294 294 294 294 294 294 294 294 295 295 295 295 296 296 297 297 297 297 298 297 298 300
308 308 308 308 308 308 309 311 312 312 312 311 312 314 314 313 313 313 313 313 312 310 309 310 310 309 309 309 308 306 304 304 304 304 304 303 303 302 302 301 300 299 298 298 298 297 296 295 294 294 294 294 294 294 294 294 294 294 294 294 294 294 294 293 294 294 294 294 294 294 295 295 295 295 295 295 296 296 296 297 297 297 298 298 299
308 307 307 307 308 308 310 312 312 313 312 312 312 313 313 313 313 313 313 312 310 309 310 310 309 309 308 307 306 304 303 303 303 303 302 302 301 300 300 299 299 298 298 298 297 295 294 294 294 294 293 294 294 294 294 294 294 293 293 293 293 293 293 293 293 293 293 294 294 294 294 294 294 294 295 295 296 296 296 296 297 297 297 297 298
307 306 306 307 308 309 310 311 312 312 313 313 313 313 312 312 312 311 310 309 309 309 309 309 308 307 306 305 303 303 303 303 303 301 300 300 299 299 299 299 299 299 299 298 296 294 294 294 294 293 293 293 294 294 294 294 293 293 293 292 292 292 292 292 293 293 293 293 294 294 294 294 294 294 294 295 295 296 296 296 296 297 297 297 297
306 306 307 308 308 309 310 311 311 311 311 311 312 312 311 310 310 309 308 308 308 308 308 307 306 305 305 303 302 303 303 302 301 300 299 299 299 299 299 299 299 298 298 297 296 295 295 295 294 293 293 293 294 294 294 294 293 293 292 292 292 292 292 292 292 292 292 293 293 293 294 294 294 294 294 294 295 295 296 296 296 296 297 297 297
306 307 308 308 307 308 310 310 310 310 309 308 310 311 310 309 308 308 307 308 308 307 306 306 305 304 303 302 301 301 301 300 300 299 299 298 298 298 298 298 298 298 298 297 296 295 295 294 294 293 293 293 294 294 294 293 293 293 292 292 292 292 292 292 291 291 292 292 293 293 293 294 294 294 294 294 294 295 295 296 296 296 296 297 297
306 307 307 307 306 306 307 307 307 308 307 307 309 309 309 309 307 306 307 307 306 306 305 304 303 302 301 301 301 301 300 300 299 299 298 298 298 298 298 298 298 297 297 296 296 295 294 294 293 292 292 293 294 294 293 293 293 292 292 292 292 292 292 292 291 291 292 293 293 293 294 294 294 294 294 294 294 294 295 295 295 296 296 297 297
305 306 306 306 306 306 306 306 307 307 306 307 308 308 308 307 306 305 306 305 305 305 304 303 302 302 301 301 301 300 299 299 299 298 298 298 298 298 298 297 297 296 296 296 295 295 294 293 292 292 292 293 294 293 293 293 293 292 292 292 291 291 291 291 291 292 292 293 293 294 294 295 295 295 295 295 295 294 295 295 295 296 296 296 297
305 305 306 306 306 305 305 306 307 307 307 307 308 307 306 305 305 305 305 305 305 305 304 303 302 301 301 300 300 299 299 299 299 299 299 299 298 298 297 297 296 296 296 295 295 294 294 293 291 291 292 293 293 293 292 292 292 292 291 291 291 291 291 292 292 292 293 294 294 295 296 296 297 297 297 296 296 296 296 296 296 296 296 297 298
305 306 306 306 306 305 305 306 307 308 308 307 307 307 306 305 305 306 306 306 305 304 303 302 301 301 300 299 299 299 299 299 299 299 299 299 298 297 297 296 296 296 295 295 295 294 294 292 291 291 293 293 292 292 291 291 291 291 291 291 290 290 291 292 292 293 293 294 295 295 296 297 297 298 298 298 298 297 297 297 297 297 297 297 298
305 306 305 305 306 306 306 307 307 308 307 307 306 306 306 305 306 306 306 306 304 302 302 301 300 300 300 299 299 299 299 299 299 299 299 299 298 297 296 296 296 295 295 295 294 294 294 292 291 291 293 292 292 291 291 290 291 291 291 290 290 290 291 291 292 293 294 294 295 295 296 297 298 299 299 298 298 298 298 298 298 297 298 298 299
305 305 305 306 307 307 307 307 307 307 307 306 305 305 306 306 306 306 305 304 302 302 301 301 300 300 300 300 300 300 299 299 299 299 299 299 298 297 296 296 296 294 294 294 294 295 294 292 291 292 292 292 291 291 290 291 290 290 290 290 290 290 290 291 293 293 294 294 295 296 297 298 299 299 299 299 299 299 299 299 299 298 298 298 299
304 305 305 306 306 307 307 307 306 307 307 306 304 304 305 306 305 305 303 302 302 301 301 301 300 300 300 300 300 300 300 299 299 299 299 298 298 297 297 296 295 294 293 294 294 294 293 291 291 292 292 291 291 291 290 290 290 290 290 290 290 290 291 292 293 294 294 295 296 296 297 298 299 300 300 299 299 299 299 299 299 299 299 299 299
304 304 305 306 306 307 307 306 305 306 306 305 304 304 304 304 304 303 302 302 301 301 301 301 301 301 301 300 300 300 300 300 299 299 298 298 298 297 297 296 294 293 293 294 294 294 292 290 291 292 292 292 291 291 290 290 290 290 290 290 290 291 292 293 294 294 295 296 296 297 298 299 300 300 300 299 299 300 300 301 301 301 301 300 300
Wind_Speed
33 36 36 35 35 33 29 27 26 22 19 17 14 13 12 11 11 11 11 12 13 13 14 15 10 6 8 7 4 3 4 7 8 6 5 2 1 3 7 8 7 8 8 8 7 8 10 9 10 13 17 19 19 18 19 20 20 21 21 20 20 20 19 18 18 18 16 17 19 17 14 14 16 15 15 18 20 19 18 19 21 22 21 21 20
33 37 37 36 36 34 31 30 29 25 23 20 17 15 14 12 12 11 12 14 13 12 13 14 9 5 8 7 3 2 2 5 8 9 9 7 5 1 2 4 4 5 8 8 6 5 7 8 9 10 14 17 18 19 19 20 20 21 22 22 22 22 21 20 20 19 18 17 17 16 13 12 15 16 15 16 18 21 21 21 22 22 23 23 21
32 38 38 37 37 35 33 33 31 26 24 21 18 17 16 14 13 13 13 14 13 13 14 13 9 6 7 7 3 2 2 3 8 10 11 11 10 8 7 4 1 4 7 8 7 6 5 6 6 8 10 13 15 17 18 19 20 20 22 24 24 24 24 25 25 24 22 21 19 17 14 14 16 17 18 18 18 19 21 23 24 25 26 26 25
29 38 40 38 38 37 36 36 32 28 25 22 21 20 18 16 15 15 15 15 13 14 15 14 10 7 7 7 3 3 4 3 8 9 9 10 11 11 10 8 4 2 6 8 9 10 9 8 7 8 10 11 12 14 15 17 19 19 21 24 25 25 26 27 27 26 25 23 21 19 17 16 18 18 18 19 18 18 19 21 23 25 26 27 28
26 37 41 39 40 39 38 37 34 30 26 24 23 22 20 19 17 16 16 16 15 15 15 13 11 8 8 8 6 5 5 3 4 4 6 8 9 10 11 9 8 5 0 6 11 12 11 10 10 12 12 11 12 13 13 13 15 16 18 20 22 25 27 27 27 27 26 24 22 20 18 17 20 18 15 16 17 20 22 21 22 23 24 25 27
20 31 41 42 41 41 40 38 35 32 27 24 23 23 23 21 20 18 17 18 17 16 14 12 10 8 7 8 6 6 6 4 2 1 4 6 7 9 10 10 10 10 7 2 6 11 12 13 13 14 14 13 13 14 14 12 12 12 13 15 17 20 23 26 29 29 28 26 24 24 23 22 21 17 14 14 14 16 19 23 25 25 24 25 26
15 20 34 42 42 41 40 39 36 33 28 26 25 25 24 24 22 20 18 19 19 18 15 12 11 9 8 7 5 6 7 6 3 1 2 3 5 7 9 10 11 11 11 8 3 3 7 10 12 13 13 14 14 14 14 13 11 10 10 11 12 13 15 20 26 27 27 27 27 28 28 28 27 23 19 16 13 13 14 17 22 25 25 27 28
22 17 23 35 42 43 41 39 37 33 29 28 27 25 24 24 23 22 20 19 19 18 16 14 12 10 9 7 7 8 8 7 6 4 2 1 3 5 7 9 10 10 10 9 8 5 3 2 4 5 7 10 12 13 13 14 14 13 11 11 12 12 13 15 19 22 23 25 27 28 29 31 32 32 29 24 21 18 17 16 18 21 25 27 29
29 24 21 25 35 42 42 40 36 33 31 29 27 25 23 23 23 23 23 20 19 18 16 15 13 11 10 8 9 11 10 9 8 6 5 3 2 3 5 7 7 7 8 8 8 7 6 5 5 5 4 4 7 9 11 13 15 16 14 14 13 14 14 14 16 17 19 22 24 26 29 30 31 33 33 32 31 27 23 20 17 17 23 28 29
32 29 24 23 28 36 41 40 37 35 32 28 25 24 23 24 24 25 24 22 19 17 17 16 14 13 11 10 11 11 10 10 9 8 6 4 3 2 3 4 5 6 6 7 7 7 6 7 7 7 7 6 5 6 8 10 13 17 18 18 18 17 18 18 17 17 17 20 21 23 27 29 30 33 34 35 36 33 30 26 19 15 19 24 28
35 30 25 25 28 33 38 39 38 35 31 28 25 25 25 25 26 27 26 24 21 19 17 17 15 14 12 11 11 11 10 11 11 9 7 7 5 3 2 3 5 6 6 7 7 8 8 9 10 9 10 10 8 7 7 8 10 14 17 20 21 22 22 22 21 20 19 20 20 20 24 28 29 32 34 35 36 34 32 31 27 22 21 21 22
33 30 26 27 30 34 38 39 37 34 31 30 27 26 27 28 28 28 28 26 23 20 18 18 17 15 13 12 12 11 11 12 11 10 9 9 7 5 4 4 4 5 7 8 8 9 10 11 12 12 13 13 13 12 11 10 11 12 14 17 20 22 24 24 24 23 22 22 22 20 21 24 27 30 32 33 34 34 32 32 32 29 27 25 21
29 30 29 30 31 33 36 37 35 33 32 31 29 28 29 30 29 29 29 28 24 22 20 19 18 16 14 13 13 13 13 13 12 11 12 10 8 7 6 5 5 6 7 8 9 11 12 12 13 14 15 16 16 16 16 16 15 15 15 17 19 21 22 24 26 26 24 24 24 24 22 22 24 27 29 30 32 34 33 33 34 31 29 30 25
28 31 32 33 32 32 35 36 35 34 34 32 30 30 31 31 30 30 30 29 26 24 22 20 19 17 15 14 14 14 14 14 13 13 13 11 10 9 8 7 6 7 7 8 9 11 13 14 15 16 17 17 17 17 17 18 19 20 20 19 20 21 22 24 26 27 27 27 27 26 25 24 24 25 27 30 32 34 33 33 33 30 29 31 30
25 30 33 34 34 35 37 38 37 36 36 35 33 33 33 32 30 30 31 31 29 26 23 22 20 18 16 15 14 14 14 14 14 15 14 13 12 11 10 8 8 9 9 10 11 13 14 16 17 18 19 18 18 17 17 18 19 20 21 21 21 22 23 24 26 28 29 29 29 28 27 26 26 26 26 27 30 33 33 33 34 32 30 31 33
20 27 35 38 38 38 39 40 40 39 37 37 36 35 34 33 32 31 32 32 30 27 24 22 20 18 17 15 13 13 13 14 15 16 15 14 14 13 12 11 10 11 11 12 13 15 16 18 19 20 19 19 19 19 20 19 18 17 18 19 20 21 23 26 28 30 31 30 30 29 29 29 28 27 26 27 28 30 33 34 36 36 34 33 34
12 18 29 37 40 40 40 41 40 40 40 38 37 37 35 33 32 32 33 33 31 28 25 23 21 19 16 14 13 12 12 13 14 16 16 16 15 13 13 13 13 13 13 14 15 16 18 19 20 20 19 19 20 20 21 22 21 19 18 18 18 19 22 25 28 30 32 33 32 31 30 31 31 29 27 28 28 28 30 32 34 35 35 35 34
10 8 10 24 38 41 39 41 42 41 40 39 38 37 35 34 33 32 33 33 31 28 26 24 21 18 15 13 12 12 12 12 13 15 16 16 15 14 13 14 14 15 15 16 17 18 19 19 19 19 19 20 20 20 21 22 22 22 22 21 19 20 21 24 27 30 32 32 33 33 32 31 31 31 29 29 28 28 28 29 32 33 33 34 34
16 14 7 9 30 41 40 40 41 40 39 38 38 37 36 34 32 31 32 32 30 28 26 24 21 18 15 13 12 11 11 12 12 14 16 16 15 14 14 15 15 16 17 17 18 19 19 19 19 19 20 21 21 20 20 21 22 23 23 22 21 21 21 22 24 27 30 30 30 31 32 30 29 29 29 29 28 29 29 29 31 32 32 33 34
7 13 11 8 20 35 40 40 39 38 39 39 39 38 37 34 31 30 31 30 28 28 26 24 22 18 16 14 13 12 12 12 13 14 15 15 15 15 15 16 16 17 17 18 18 18 19 19 19 20 21 22 23 21 20 21 22 23 24 24 24 24 23 23 22 23 26 28 29 28 29 29 28 27 27 27 28 29 30 30 30 32 32 33 33
13 10 8 6 17 26 34 38 38 38 39 40 39 37 35 33 31 30 30 30 28 27 26 25 23 20 18 16 14 13 12 12 13 14 15 15 15 16 16 16 17 18 18 18 18 18 18 19 19 21 23 23 23 23 22 22 22 24 25 25 26 26 25 25 24 23 23 25 28 28 28 27 27 27 26 25 26 28 29 30 30 31 32 33 34
11 11 13 7 7 20 30 36 38 38 38 37 36 35 33 32 31 30 30 30 29 28 27 27 25 22 20 18 15 14 13 13 14 15 16 16 16 16 16 17 17 17 18 17 18 18 18 19 20 22 24 24 23 23 22 22 23 25 27 27 27 26 25 25 25 25 23 23 24 27 29 29 28 28 28 27 26 26 27 28 29 30 33 34 34
14 11 13 13 11 8 22 33 36 37 37 36 34 34 35 34 32 31 31 31 31 30 30 29 27 24 22 19 17 16 15 15 15 16 16 16 16 16 16 17 17 17 17 17 18 18 18 19 22 24 24 24 24 24 23 23 24 26 28 28 27 26 25 26 26 26 25 24 24 24 27 29 29 29 31 31 29 27 26 27 29 29 32 34 34
21 18 15 13 16 14 10 24 34 36 36 36 37 37 36 35 34 33 34 34 33 32 31 30 28 26 23 20 19 17 17 17 16 16 17 16 16 16 16 17 16 16 16 17 18 18 19 20 22 23 25 25 25 25 25 25 25 26 27 27 26 25 25 26 26 27 26 25 25 25 24 26 28 29 30 31 32 31 28 26 27 28 30 33 33
23 23 21 18 18 18 13 14 26 34 38 39 40 39 37 37 36 37 37 36 34 32 31 31 30 28 25 22 21 19 19 18 18 17 17 17 17 16 16 16 15 15 16 17 18 19 20 21 22 23 25 25 25 25 25 25 25 25 26 26 26 25 26 27 27 28 28 27 27 27 27 25 26 28 30 30 31 33 32 30 27 26 27 30 33
27 25 25 24 23 23 21 18 17 22 32 38 39 39 39 39 39 39 39 36 35 33 32 32 32 30 27 24 22 21 20 19 19 18 18 17 16 16 15 15 14 15 16 17 18 20 21 23 24 25 25 25 25 25 26 26 27 26 26 26 26 27 27 28 29 29 30 29 29 29 29 28 27 27 29 29 30 31 33 34 32 29 26 26 29
30 25 24 25 26 26 26 25 22 18 19 26 32 36 37 39 39 39 38 36 35 35 34 33 33 30 27 25 24 22 20 19 18 18 17 16 15 15 14 13 14 15 16 17 19 20 22 23 25 25 26 26 26 26 26 27 27 27 27 27 28 28 29 29 30 30 30 31 31 30 30 29 28 28 28 29 30 31 33 35 34 33 31 29 29
28 23 21 22 24 28 29 28 28 24 18 17 25 31 34 37 40 40 39 38 37 36 35 34 33 31 28 26 24 22 20 19 18 17 16 16 15 14 13 13 14 15 16 17 19 20 22 23 24 25 26 26 26 26 26 26 26 27 27 28 28 29 30 30 30 30 30 30 30 30 30 30 29 29 30 30 30 31 33 36 36 35 34 33 31
23 21 21 23 23 24 25 24 24 27 24 20 22 29 33 36 38 39 40 38 37 36 36 34 32 31 28 26 24 22 19 18 17 17 17 15 14 13 13 13 14 15 16 18 19 20 21 22 24 25 26 27 27 28 28 27 27 27 27 28 29 30 31 32 33 33 33 32 32 32 31 31 30 30 30 31 31 32 33 35 38 38 37 36 34
24 24 25 27 27 27 27 25 23 23 24 24 25 30 34 34 34 36 37 38 38 36 35 33 32 30 28 25 23 21 19 18 18 18 17 15 14 13 12 13 14 15 17 19 19 20 22 23 24 25 27 28 29 29 29 28 27 27 28 29 30 31 32 33 34 35 36 36 37 37 37 36 35 33 33 33 34 33 33 34 36 38 40 40 38
27 29 30 31 32 32 32 30 29 27 22 17 21 28 33 33 33 35 34 35 37 37 34 33 31 29 27 24 22 21 19 19 19 18 17 15 13 12 12 13 15 16 18 19 20 20 21 22 24 26 28 30 31 31 31 30 28 27 28 30 32 34 35 36 36 37 38 39 39 39 39 40 40 39 38 38 38 37 35 34 33 35 40 42 43
28 30 30 30 31 33 33 33 32 30 25 20 19 22 28 33 35 36 34 32 33 35 33 31 30 28 27 25 22 21 20 19 19 18 15 13 11 12 13 15 16 17 19 19 19 20 21 23 26 28 29 31 32 33 32 30 29 28 28 29 31 32 34 35 37 39 40 41 41 41 41 41 41 41 41 40 40 40 39 37 35 34 35 40 44
22 22 23 24 25 26 29 31 31 29 27 25 24 23 27 34 36 35 35 32 30 30 30 29 29 28 26 24 22 21 20 19 18 15 12 11 12 13 15 16 18 19 19 18 18 20 22 25 27 29 30 32 33 33 30 28 28 28 28 29 30 31 33 34 36 38 39 41 41 42 42 42 42 41 41 42 42 41 40 40 38 35 34 35 39
17 20 22 24 25 26 28 30 33 34 32 28 26 26 28 32 32 31 33 34 31 29 28 27 27 27 25 23 21 20 19 17 14 12 11 12 14 15 16 17 19 19 17 17 19 21 24 26 28 30 32 33 32 31 30 29 29 29 29 29 31 33 35 36 37 38 39 40 41 41 43 43 43 42 42 42 42 42 41 40 39 37 35 33 33
24 25 27 29 31 32 33 34 36 37 35 30 28 29 31 32 31 30 31 31 31 30 28 27 26 25 23 21 19 18 16 14 12 12 13 14 14 15 17 18 18 16 16 17 20 23 26 28 29 30 31 33 32 31 30 29 29 30 30 32 33 35 38 39 40 40 41 41 42 42 43 43 43 43 42 41 41 41 42 42 43 42 40 36 33
27 28 31 33 34 34 34 34 34 34 32 29 27 28 34 35 33 33 31 30 31 30 27 26 26 23 21 19 18 18 16 13 12 12 13 14 15 15 17 17 16 15 17 20 23 26 28 30 30 31 32 33 32 31 30 30 30 31 33 34 36 38 39 40 40 40 40 41 42 42 43 43 44 44 43 41 40 40 42 44 46 46 44 41 39
30 32 34 36 36 34 33 33 32 32 32 30 27 29 38 39 37 37 33 31 32 29 26 27 26 23 21 20 19 17 14 11 11 12 13 14 14 15 15 15 16 18 21 24 26 27 28 29 31 33 33 32 31 30 30 30 31 32 33 34 36 37 37 37 38 39 40 42 43 43 43 44 44 44 43 41 40 40 41 43 45 46 46 45 43
32 34 36 37 36 36 35 33 32 32 32 32 28 28 38 41 40 38 36 35 34 29 27 29 28 24 22 20 18 15 11 9 10 11 12 13 13 14 15 17 20 22 24 24 25 26 27 28 29 30 30 30 30 30 30 31 31 30 31 32 33 35 36 37 39 40 41 42 43 43 43 43 44 44 42 41 41 41 41 43 43 44 46 47 45
31 32 34 36 36 36 34 31 31 32 32 31 28 28 34 36 38 39 39 38 34 29 30 31 28 24 22 19 15 11 9 10 11 12 13 13 15 16 18 20 22 22 22 22 24 26 27 27 29 31 32 31 32 31 31 32 32 32 31 31 33 35 37 39 40 41 42 42 42 42 42 42 43 43 42 40 40 41 42 43 43 43 47 50 46
33 35 35 36 34 33 29 25 25 28 29 28 28 30 31 34 38 40 37 35 31 30 31 28 24 23 21 17 13 10 9 10 10 11 12 13 14 15 17 18 19 19 20 22 24 26 26 27 30 34 35 35 35 34 33 32 32 33 33 33 34 36 38 39 40 42 43 43 42 42 43 44 44 43 42 41 40 40 41 42 42 45 49 50 45
36 37 35 32 29 26 23 18 14 14 15 18 27 32 32 34 39 38 34 33 33 32 30 26 24 24 20 14 10 8 8 7 8 9 9 10 11 12 14 16 18 19 21 23 25 27 27 29 31 35 38 39 38 37 35 33 32 33 33 33 34 36 37 39 42 43 43 44 43 43 44 44 44 43 42 41 40 40 40 40 42 45 48 47 44
37 36 30 24 22 23 21 15 9 7 11 14 22 30 31 30 32 33 31 32 33 31 28 26 24 21 15 10 7 6 5 5 6 7 9 11 11 13 15 17 18 20 21 24 27 29 29 30 32 36 40 42 40 37 36 34 33 33 32 32 33 36 37 39 42 43 43 43 43 44 44 44 43 42 41 41 41 40 39 41 43 44 44 42 42
36 31 23 18 19 19 15 11 8 6 12 15 16 23 30 30 29 31 30 29 29 27 25 23 19 14 11 7 5 2 2 3 5 7 9 10 12 13 16 17 18 20 23 26 28 28 29 31 33 38 42 43 40 37 35 35 34 33 32 32 33 35 35 36 39 42 43 43 44 45 45 45 43 42 41 42 42 42 42 43 43 42 42 40 39
31 25 18 15 13 7 3 3 4 5 12 12 12 20 30 31 30 31 30 28 27 24 21 17 14 10 7 4 3 2 0 2 4 6 7 9 11 12 14 16 18 21 25 26 26 27 28 31 36 42 45 43 39 36 35 34 34 34 34 34 34 34 34 35 38 41 42 43 44 44 44 43 43 42 42 42 43 43 43 44 43 42 40 40 38
23 18 14 11 6 3 1 4 5 5 6 8 11 21 29 31 30 30 28 26 24 19 15 12 10 8 7 4 4 5 2 0 2 5 7 9 10 10 12 15 20 23 24 24 25 26 28 32 39 45 46 42 39 37 36 36 35 35 36 36 36 36 36 36 38 40 40 41 42 42 41 40 41 42 43 43 44 44 44 42 41 40 39 38 38
15 12 10 6 4 3 10 13 12 12 8 11 18 25 31 34 32 28 24 21 17 12 10 10 10 9 8 7 6 4 2 2 5 6 6 7 9 10 13 17 20 22 22 22 25 27 29 34 42 46 45 42 40 39 38 38 37 38 38 39 39 39 37 37 38 39 38 38 38 38 38 37 38 39 41 42 43 43 42 41 39 39 39 39 38
12 10 8 7 7 11 14 10 9 11 12 18 23 27 31 32 28 23 19 15 11 11 12 12 12 11 9 6 5 3 2 2 5 5 4 7 12 13 13 16 18 19 21 23 25 27 29 37 45 46 44 42 41 39 39 39 39 40 41 41 41 40 39 38 38 38 37 36 37 36 35 35 34 34 35 37 37 38 38 39 37 36 36 37 38
13 10 8 11 13 15 12 8 7 7 15 23 26 29 30 27 23 19 15 12 12 14 15 14 13 11 7 4 5 4 3 3 3 3 5 10 14 12 11 15 18 20 22 23 24 26 30 38 45 45 43 42 41 40 39 39 39 40 41 41 41 42 41 39 38 36 35 35 36 36 35 34 33 31 31 32 33 34 35 36 35 33 33 34 34
15 13 11 12 13 13 10 10 8 9 21 27 28 29 27 22 19 17 14 13 14 14 13 12 14 11 6 6 6 5 3 2 3 5 7 13 16 13 11 16 20 21 22 22 24 26 31 38 43 42 41 42 42 40 38 37 38 38 38 39 40 40 40 38 35 33 32 34 35 34 34 33 32 31 31 31 32 33 34 34 33 32 32 33 34
10 9 9 9 10 12 10 10 9 14 24 28 28 27 23 20 18 16 15 15 15 13 11 12 14 9 6 7 8 6 2 2 5 7 9 14 17 14 14 17 20 21 21 22 25 27 32 38 41 40 38 40 41 39 36 35 36 36 37 37 37 36 35 33 30 28 28 30 31 31 32 30 29 30 31 30 30 30 31 31 31 31 33 35 36
4 7 10 7 6 7 7 8 12 21 29 30 29 26 22 19 17 16 16 16 15 14 13 13 12 6 5 6 7 4 1 5 8 9 11 15 14 12 14 19 20 21 21 23 26 28 31 36 39 39 39 40 39 36 34 34 35 35 35 35 34 33 30 28 26 25 25 27 28 29 28 24 23 24 24 23 22 23 25 25 25 26 30 33 35
Wind_Direction
190 186 187 187 185 189 191 187 185 191 199 201 201 197 190 184 171 157 147 139 134 133 136 143 153 153 133 134 134 94 68 66 69 73 76 72 284 237 237 243 236 236 245 248 252 246 239 234 227 224 227 232 233 227 225 230 234 233 232 228 221 217 211 210 221 227 228 229 227 233 242 238 236 239 241 246 250 242 232 233 236 239 244 247 257
189 184 184 185 182 186 191 188 186 192 198 199 201 200 201 197 186 177 163 156 153 151 156 159 172 171 149 156 157 116 85 66 55 48 47 38 34 85 241 272 262 250 248 241 238 250 252 245 236 229 225 230 234 234 233 232 233 233 234 234 230 229 226 221 227 232 236 242 239 235 237 227 224 236 248 253 256 248 236 231 230 234 239 240 246
188 181 181 183 183 186 190 190 191 198 200 199 199 199 206 205 195 190 181 177 171 166 174 180 192 192 168 177 178 152 167 81 48 38 34 27 30 40 40 27 327 245 243 242 229 219 230 238 241 239 234 231 232 234 236 238 239 234 233 235 232 232 233 231 234 237 239 245 250 245 234 229 226 229 241 254 261 254 243 236 231 230 234 238 240
189 182 181 182 184 186 190 192 193 198 198 197 197 196 203 208 205 199 189 192 187 176 188 198 202 200 184 185 174 168 178 86 48 42 36 28 29 32 35 34 18 281 233 232 228 223 221 221 227 236 239 238 237 235 233 234 238 239 238 238 237 235 236 237 238 240 241 241 246 246 238 236 238 236 240 251 260 260 253 244 239 236 237 236 234
187 183 183 182 185 189 192 193 193 195 196 197 197 197 201 207 211 207 194 196 197 191 198 203 203 201 191 183 167 164 163 97 61 50 38 30 29 30 31 31 31 33 223 216 222 229 230 227 232 240 244 242 239 240 238 234 232 235 238 241 243 242 243 244 245 246 246 243 241 239 235 233 236 239 247 254 254 256 257 253 248 246 245 239 231
196 191 187 184 186 190 191 191 191 193 198 201 201 200 200 205 213 212 200 196 199 205 208 204 205 209 199 187 172 167 167 154 150 40 35 32 26 23 25 26 34 46 52 87 219 235 240 240 241 248 253 250 243 239 237 236 234 236 241 245 245 247 249 249 249 250 252 251 246 241 238 238 237 235 245 254 248 247 254 256 254 251 248 242 236
218 205 193 187 185 187 190 192 193 195 201 205 204 202 201 206 213 215 209 201 201 210 213 209 213 216 205 193 178 179 185 191 217 298 9 27 21 16 19 21 26 39 50 55 63 244 250 252 253 255 258 258 254 245 236 231 229 234 246 256 258 255 255 253 250 250 253 254 252 249 246 244 243 242 244 250 251 246 245 250 254 253 249 243 241
216 203 193 190 187 188 192 195 196 198 203 205 204 204 204 207 213 217 217 214 210 211 212 213 220 222 218 206 184 192 210 220 236 253 261 311 5 8 11 16 18 26 35 41 49 50 31 324 291 283 272 267 265 259 248 236 227 226 231 247 262 265 262 259 255 253 254 255 254 254 251 246 244 245 245 245 251 255 252 253 257 254 248 245 244
212 205 199 197 194 194 196 198 200 202 204 205 205 206 207 209 214 217 220 223 219 214 213 216 222 224 225 215 199 207 223 228 237 243 242 272 322 347 3 12 11 13 16 18 27 36 38 35 21 6 348 306 287 280 269 255 241 234 230 234 247 258 261 263 261 260 260 259 256 256 255 251 247 247 246 244 246 252 257 261 264 259 249 243 244
212 209 205 201 199 199 199 199 201 202 202 203 205 208 209 210 214 218 222 226 225 221 219 219 223 227 225 218 216 223 227 226 236 238 230 241 260 290 340 353 351 356 2 356 357 6 14 16 11 4 357 347 324 302 288 275 260 248 242 239 241 246 253 259 263 266 266 263 261 259 257 256 254 251 248 245 245 247 251 254 257 257 253 247 244
210 208 201 194 193 196 197 198 198 198 201 202 204 208 209 209 213 219 223 227 228 228 225 223 225 231 231 227 232 237 232 230 240 244 237 237 240 255 292 316 331 340 342 335 334 340 348 352 351 348 343 336 329 316 299 288 276 264 257 252 251 251 251 253 258 265 268 265 264 263 259 257 257 256 253 248 244 244 247 250 251 251 254 256 250
205 201 194 188 187 191 195 195 195 196 200 203 204 208 209 209 212 218 222 226 230 231 230 226 227 233 235 236 241 245 244 241 243 246 245 243 246 255 266 283 304 314 318 320 323 329 336 337 335 333 330 326 324 319 309 296 285 278 270 263 260 259 258 256 255 258 264 264 262 264 265 262 259 259 259 253 247 247 249 252 256 256 253 254 254
197 193 192 190 188 190 193 194 194 197 201 203 206 208 207 208 212 217 221 225 229 233 232 229 230 234 235 239 245 246 248 247 243 242 244 247 248 249 256 268 281 293 303 310 317 321 322 321 319 319 320 320 317 312 307 299 291 283 274 266 261 259 259 260 256 253 254 257 258 260 264 266 262 259 259 257 254 253 252 253 257 259 255 252 250
191 192 192 192 193 194 195 196 196 198 201 203 206 208 206 207 212 216 220 225 229 233 234 233 234 235 236 241 245 247 250 251 246 245 248 250 249 251 259 265 269 278 286 291 298 303 306 309 312 313 313 312 308 302 296 292 289 284 276 267 261 256 254 255 256 253 251 251 255 258 261 262 263 261 258 256 256 257 254 252 254 256 253 252 250
191 195 194 193 196 198 198 198 200 200 202 203 204 205 205 207 212 215 218 223 229 231 233 235 236 235 238 243 246 249 253 253 250 249 251 252 253 259 267 269 268 269 275 282 287 294 301 307 311 313 313 310 307 302 295 289 286 283 277 271 264 257 251 249 251 252 253 253 253 255 259 260 260 261 260 257 255 256 255 254 253 252 250 252 252
193 194 194 194 196 199 200 199 200 201 201 202 203 204 205 208 212 215 217 222 227 231 232 235 236 237 240 243 246 249 251 253 252 251 253 255 257 263 269 273 275 276 280 286 292 298 304 307 310 311 314 315 315 311 305 300 294 284 278 277 274 265 255 248 246 248 251 254 255 255 256 258 259 259 260 260 258 255 254 254 254 253 251 251 252
201 194 194 197 197 198 200 199 198 199 200 201 204 207 209 211 213 214 215 219 224 229 231 233 235 237 238 240 245 250 253 254 253 251 254 258 259 261 266 271 276 280 285 290 295 300 303 306 309 311 315 319 319 316 310 305 302 294 287 286 287 280 268 255 248 246 247 249 254 257 256 256 258 260 260 260 260 259 256 254 254 255 255 253 252
231 233 213 204 201 198 198 200 199 199 201 203 205 209 211 213 215 214 214 217 222 227 230 233 234 233 234 240 247 254 255 255 254 252 254 259 261 262 264 269 274 279 284 290 296 301 304 306 307 311 317 320 319 316 309 304 300 296 293 291 290 288 281 269 257 251 249 249 251 254 256 255 255 257 260 261 262 263 261 258 255 254 256 255 254
226 240 270 214 202 201 198 200 201 199 202 204 205 208 212 213 216 217 217 218 222 226 229 231 231 229 233 241 248 253 256 256 254 254 256 259 263 264 264 267 271 278 285 293 299 301 303 305 308 314 318 318 317 314 309 302 296 294 294 293 291 289 286 279 269 260 256 255 254 252 253 254 253 254 258 262 264 263 263 263 261 257 254 255 257
268 247 250 214 200 203 200 200 202 202 203 205 205 207 209 213 216 218 218 217 221 226 229 230 227 227 233 239 244 251 255 255 253 253 257 260 262 263 265 268 273 280 288 294 298 300 303 308 314 317 317 315 315 313 309 303 297 293 291 290 290 289 286 282 278 270 262 259 259 256 253 252 251 252 255 260 263 264 264 265 265 263 259 257 258
341 312 291 217 195 203 205 204 206 207 205 203 204 206 210 215 217 218 217 217 220 225 228 228 225 227 236 241 246 251 254 256 253 251 253 256 259 261 264 269 274 281 289 294 298 303 310 314 314 313 313 313 312 310 309 306 301 297 293 289 287 285 284 283 281 277 270 263 260 258 255 251 249 248 249 252 257 261 266 267 265 265 265 263 260
340 323 334 337 204 209 209 205 204 204 203 202 205 210 214 216 217 217 219 220 222 224 225 225 225 228 236 241 245 250 253 255 254 251 251 252 254 259 263 268 275 283 290 295 301 308 312 312 311 310 309 309 307 305 304 301 299 297 295 293 289 285 282 282 282 280 278 273 266 260 257 254 249 246 245 246 250 255 262 266 265 264 264 264 262
351 317 318 340 343 268 218 209 205 203 205 208 211 214 216 216 215 217 220 221 222 224 224 224 225 229 234 238 241 246 250 253 254 254 253 251 253 257 261 268 277 284 290 297 305 310 310 307 306 305 304 304 303 300 295 292 290 290 292 291 290 289 285 284 284 284 283 282 277 270 263 258 254 250 246 243 245 250 256 261 264 264 262 262 264
349 335 321 321 329 322 250 217 213 211 213 214 213 214 214 214 216 218 220 220 221 222 224 225 226 229 231 233 238 242 246 249 252 254 254 253 254 257 262 271 279 285 293 302 307 307 304 300 298 298 297 297 297 295 292 289 286 287 289 291 292 292 291 290 290 290 290 288 284 280 273 265 260 258 253 247 243 245 249 255 263 267 265 260 260
334 332 330 319 309 310 300 245 221 217 219 216 212 212 213 214 216 218 217 217 218 220 222 225 226 227 228 230 235 239 243 247 248 251 253 253 255 259 264 272 279 287 297 303 305 304 301 298 295 292 290 289 289 289 290 290 289 288 289 290 292 293 292 292 291 290 290 289 286 283 280 275 270 265 260 254 247 245 246 249 255 265 272 267 260
319 316 315 314 309 305 301 289 262 234 225 220 213 211 213 214 214 216 215 214 217 219 221 224 225 225 226 230 233 237 240 243 245 247 249 252 255 259 264 271 281 290 297 301 303 304 302 299 295 290 285 283 282 283 285 286 287 288 289 289 289 289 289 289 289 288 287 286 285 283 281 280 279 275 268 262 254 249 248 250 251 255 266 274 269
308 308 306 306 306 304 298 290 284 272 250 237 228 221 218 217 215 215 215 215 217 218 218 222 223 222 225 229 232 236 238 240 242 245 247 249 251 255 263 274 285 291 298 303 304 302 299 296 293 289 285 281 280 280 281 283 284 286 288 289 288 286 286 286 286 287 287 287 286 285 284 282 279 277 273 267 260 254 251 251 252 254 259 267 273
299 302 304 302 301 303 302 289 274 270 269 255 240 232 227 224 221 217 215 214 215 216 216 219 221 222 225 228 230 233 234 237 240 242 244 246 248 256 267 277 288 297 303 305 301 298 298 296 293 290 287 284 283 283 284 283 284 287 289 290 290 289 288 287 286 286 285 286 287 288 288 287 284 281 278 274 268 261 256 251 249 251 256 260 266
316 317 314 312 312 315 315 304 282 273 270 259 242 230 222 220 219 215 212 212 214 214 214 217 220 222 224 225 226 228 229 233 237 239 242 246 250 260 272 283 294 302 304 301 300 300 300 297 293 291 290 290 289 289 287 283 281 283 286 288 288 287 287 286 284 283 282 282 282 282 283 284 285 285 284 283 278 272 267 259 250 248 250 254 256
328 325 320 318 318 319 319 316 311 299 281 262 244 227 218 216 215 212 212 214 212 212 213 215 219 221 222 221 222 224 226 228 232 236 241 246 254 264 277 290 297 300 301 301 301 300 297 295 293 293 292 292 292 292 292 289 284 281 280 281 281 281 281 281 281 281 281 280 279 278 277 276 275 274 276 278 279 278 275 269 259 252 250 252 252
319 316 315 314 312 311 312 310 310 312 306 279 248 229 220 219 214 208 207 209 209 209 210 212 215 217 217 217 218 221 224 226 229 234 238 246 256 270 283 291 293 295 300 301 297 293 290 289 290 291 292 293 294 295 296 295 292 287 282 280 278 277 277 276 277 279 280 280 280 280 280 279 277 275 274 274 274 275 275 273 268 259 252 252 253
314 312 312 311 307 306 308 308 304 304 309 306 284 254 235 228 220 211 206 206 207 208 208 209 211 212 212 213 215 218 220 223 227 231 239 250 262 275 283 286 289 292 295 295 290 286 285 285 287 289 291 293 295 296 296 296 296 294 291 289 286 285 282 279 277 277 278 279 280 280 281 281 281 281 280 279 276 274 272 270 270 266 258 253 251
313 313 312 311 307 301 300 304 304 302 304 305 297 278 251 237 228 217 205 200 202 207 207 206 207 207 206 209 212 214 217 221 227 235 246 259 267 274 279 281 285 291 294 294 289 286 284 285 287 290 292 294 295 296 297 298 298 297 296 295 294 293 291 287 283 281 280 280 280 281 280 279 279 280 280 280 280 280 277 273 270 268 264 259 253
319 315 312 310 308 304 297 296 298 300 302 302 294 278 256 240 229 213 198 192 195 202 203 203 204 203 203 206 210 214 217 222 229 240 252 261 266 271 275 281 288 294 296 291 285 283 283 285 290 294 296 297 297 296 296 297 298 297 297 295 294 292 290 289 287 286 285 284 283 283 281 279 278 277 277 278 279 280 280 278 273 267 262 262 260
324 319 314 310 308 307 301 294 293 295 297 297 290 272 251 238 226 208 192 188 192 197 199 202 205 204 203 205 208 211 214 219 230 245 255 259 263 269 276 284 291 291 284 279 278 280 285 289 294 297 299 299 298 295 293 293 293 293 292 291 289 287 287 286 286 286 286 285 285 285 283 281 279 277 275 275 275 276 277 277 275 270 263 257 254
325 320 315 314 312 308 302 296 295 294 290 289 287 265 244 234 221 203 191 190 193 194 196 199 202 201 198 199 202 204 209 219 236 249 254 256 262 272 279 282 281 274 271 274 281 287 293 296 298 301 303 301 297 293 290 289 288 288 288 287 287 287 287 286 286 286 286 286 285 284 282 281 280 278 276 275 274 274 274 274 273 273 269 260 251
320 315 313 314 311 305 301 297 294 290 283 283 283 257 236 227 213 198 191 191 191 190 189 193 196 193 190 193 198 204 213 229 246 251 254 260 266 271 271 268 267 269 275 283 290 295 299 301 304 307 307 302 297 294 292 290 289 289 289 288 288 287 287 288 288 289 290 289 288 285 283 281 279 277 276 275 274 273 272 272 271 271 271 266 255
312 310 310 312 308 304 304 300 294 287 278 277 272 242 220 211 200 190 186 185 184 183 185 189 190 187 189 197 203 210 223 236 244 247 251 257 261 263 266 269 273 279 285 292 297 301 305 310 315 318 315 310 304 301 299 297 295 294 292 290 288 288 288 289 291 292 292 291 290 287 284 281 279 277 276 273 272 271 270 269 268 267 268 267 261
305 306 308 307 306 306 306 302 294 287 278 271 256 223 204 198 188 181 179 179 178 180 184 186 187 189 195 203 207 215 229 233 235 242 249 257 264 270 275 278 281 287 292 298 305 310 314 320 327 330 328 323 317 312 308 303 299 296 293 290 288 287 288 290 293 294 295 294 291 288 284 281 279 278 277 275 271 268 266 264 264 264 264 265 265
303 305 306 304 304 304 300 296 292 284 275 262 238 211 198 195 188 179 176 177 177 180 181 181 181 185 189 194 199 211 225 231 241 252 263 273 279 281 283 286 289 293 296 302 314 323 325 327 330 332 332 330 324 319 315 310 305 300 296 292 290 290 291 294 295 297 297 295 292 289 285 282 280 278 276 275 272 268 264 262 261 259 259 261 264
303 305 307 303 300 296 289 288 287 269 249 233 218 204 193 188 181 172 169 171 172 172 171 171 172 174 178 183 189 198 214 235 258 274 290 302 304 299 296 296 294 293 296 306 320 328 328 327 329 331 331 330 326 320 316 311 307 303 299 295 293 292 294 296 296 296 296 293 292 289 286 284 282 279 277 275 273 269 265 262 259 256 257 260 262
303 308 307 297 290 285 278 276 270 219 173 171 187 189 182 175 169 164 163 165 165 163 164 167 168 168 174 181 181 190 221 257 286 311 325 328 321 308 299 294 291 293 301 312 322 326 326 325 327 328 328 329 325 319 315 312 309 306 304 300 296 295 295 296 295 295 294 293 291 290 288 286 284 280 277 274 272 270 267 263 261 259 260 261 261
304 306 299 286 284 280 268 264 266 213 160 148 158 167 167 165 161 160 162 162 161 161 161 161 160 160 165 167 162 175 259 303 326 333 334 331 322 305 294 291 293 298 309 317 322 324 325 325 325 327 328 328 325 320 317 315 313 312 310 306 301 298 298 297 295 294 294 294 293 291 289 287 285 280 275 270 267 266 265 263 262 262 261 261 261
303 297 282 277 284 280 243 257 268 184 154 150 152 158 161 160 156 155 158 156 153 152 150 147 146 147 140 118 105 128 167 328 332 336 341 340 330 310 295 295 302 310 316 320 322 323 324 325 327 329 330 328 325 322 320 318 317 316 313 310 306 304 303 301 297 296 296 295 293 292 290 288 285 280 274 268 263 262 261 262 262 262 261 258 258
296 281 267 267 255 168 161 274 248 194 151 142 155 159 155 149 147 150 150 145 144 143 140 137 138 131 113 111 158 179 192 0 16 -0 348 341 335 322 309 309 314 318 319 319 322 323 322 326 331 332 331 329 326 324 323 321 320 319 316 314 312 310 308 305 301 299 297 295 292 291 291 288 283 278 273 267 262 259 258 258 259 259 258 255 252
282 261 249 240 208 249 294 284 255 238 214 158 156 160 152 144 145 148 144 141 144 145 139 134 135 133 134 154 180 197 201 76 40 12 345 334 336 331 322 320 321 321 320 321 324 322 323 330 336 335 332 330 328 327 325 324 323 321 318 317 315 313 310 307 304 301 298 295 293 293 292 288 282 276 272 268 265 261 258 256 256 255 253 249 247
262 235 230 234 253 292 298 276 237 227 198 161 158 162 155 148 147 147 146 148 147 141 138 138 143 150 157 175 200 210 167 99 30 4 335 333 338 333 327 329 330 326 325 327 325 322 327 337 338 336 333 332 331 329 327 325 324 322 319 317 316 313 312 309 306 303 300 298 297 296 295 291 283 274 269 267 265 262 258 255 254 252 248 244 244
255 234 251 265 277 294 287 246 219 190 165 159 158 157 153 149 149 152 157 154 140 136 138 141 150 154 145 151 182 178 130 95 14 324 309 334 342 337 332 339 339 334 334 333 326 324 333 340 339 337 337 336 333 330 327 325 323 320 318 316 314 312 312 310 307 304 302 300 299 297 295 292 283 273 265 262 260 257 254 251 249 246 243 243 244
253 244 260 268 280 298 278 239 223 168 155 153 150 149 150 152 154 159 159 144 136 139 140 147 162 161 121 110 151 153 112 79 327 309 319 342 349 343 334 340 344 342 342 338 330 331 338 339 338 339 341 338 334 331 327 324 321 318 316 314 312 312 312 310 306 304 302 299 299 299 297 291 282 272 266 263 260 255 251 248 244 239 237 239 243
250 258 285 286 291 295 265 221 191 162 155 150 145 146 150 151 150 147 139 132 136 146 149 158 172 165 96 94 128 136 119 330 326 326 334 350 356 350 338 341 347 349 348 343 338 337 338 339 340 343 344 341 336 331 327 324 322 319 316 315 314 314 313 311 307 305 302 300 300 301 298 290 280 272 269 267 263 255 248 244 240 236 234 235 237
254 295 314 316 303 277 229 181 159 157 156 152 148 146 145 143 139 131 126 127 137 149 154 158 162 149 86 95 116 110 18 338 344 348 352 357 359 352 344 345 350 354 353 347 343 340 338 340 345 347 347 345 342 336 330 327 324 322 321 320 320 320 319 316 313 311 308 306 304 302 299 291 279 273 269 265 259 251 244 240 238 237 236 236 236